Location: Doverdale
(52.2833°N, 2.2000°W)
Time: 01:53:57
(UTC+00:00)

Cosmos 1980 Rocket - Pass Details

Date: 07 March 2021
Orbit: 828 x 851 km, 71.0° (Epoch: 15 April)

Event Time Altitude Azimuth Distance (km) Brightness Sun altitude
Rises 19:36:38 0° 272° (W) 3,410 7.1 -15.6°
Reaches altitude 10° 19:39:56 10° 291° (WNW) 2,480 6.0 -16.1°
Maximum altitude 19:43:43 18° 333° (NNW) 1,988 4.6 -16.7°
Drops below altitude 10° 19:47:31 10° 15° (NNE) 2,490 4.6 -17.2°
Sets 19:50:52 0° 34° (NE) 3,429 5.2 -17.7°
